Orbital Elements at Epoch 2459200.5 (2020-Dec-17.0) TDB
Reference: JPL 27 (heliocentric ecliptic J2000)
Element | Value | Uncertainty (1-sigma) | Units |
e | .01789611043459053 | 3.5984e-08 | |
a | 2.864443842790012 | 1.4135e-08 | au |
q | 2.813181439445759 | 1.0531e-07 | au |
i | 2.834711395967789 | 3.304e-06 | deg |
node | 125.8105451190977 | 8.0161e-05 | deg |
peri | 295.1551777128412 | 0.00012822 | deg |
M | .3550490679925493 | 9.9049e-05 | deg |
tp | 2459198.753595782134 (2020-Dec-15.25359578) | 0.0004872 | TDB |
period | 1770.756706915459 4.85 | 1.3107e-05 3.589e-08 | d yr |
n | .2033029148465552 | 1.5049e-09 | deg/d |
Q | 2.915706246134265 | 1.4388e-08 | au |
|
| | Orbit Determination Parameters
Additional Information
|